Regional Weather Roundup
Issued by NWS

Home | Current Version | Previous Version | Text Only | Print | Product List | Glossary On
Versions: 1 2 3 4 5 6 7 8 9 10 11 12 13 14 15 16 17 18 19 20 21 22 23 24 25 26 27 28 29 30 31 32 33 34 35 36 37 38 39 40 41 42 43 44 45 46 47 48 49 50
000
ASMX46 KSGX 032311
RWRMX

MEXICAN WEATHER ROUNDUP
NATIONAL WEATHER SERVICE SAN DIEGO CA
400 PM PDT TUE MAY 03 2016

BAJA CALIFORNIA

CITY           SKY/WX    TMP DP  RH WIND       PRES   REMARKS
ENSENADA NW      N/A     64  32  29 W14       29.91F
LA PAZ         MOSUNNY   86  39  19 N9        29.85F
LORETO         MOSUNNY   79  64  61 NE12      29.81F
MEXICALI       SUNNY     93  30  10 SW2       29.83F
S.J. DEL CABO  PTSUNNY   82  57  42 E17       29.84F
TIJUANA        SUNNY     70  52  52 W9        29.96F

NORTHWESTERN MEXICO

CITY           SKY/WX    TMP DP  RH WIND       PRES   REMARKS
CHIHUAHUA      MOSUNNY   84  37  18 NE9       29.97F
CULIACAN       SUNNY     93  57  29 SW12      29.80F
GUAYMAS        SUNNY     86  54  32 SW16      29.75F
HERMOSILLO     SUNNY     97  32  10 SW12      29.82F
JUAREZ         MOSUNNY   81  36  19 NW9       29.99F
LOS MOCHIS     MOSUNNY   86  48  26 NW17      29.81F
OBREGON        MOSUNNY   93  43  17 W13       29.76F

NORTHEASTERN MEXICO

CITY           SKY/WX    TMP DP  RH WIND       PRES   REMARKS
MATAMOROS      CLOUDY    73  63  68 N7        29.97S
MONCLOVA         N/A    N/A N/A N/A MISG        N/A
MONTERREY      CLOUDY    70  54  56 E7        29.99F
NUEVO LAREDO   PTSUNNY   79  52  38 CALM      29.97F
PIEDRAS NEGRAS   N/A    N/A N/A N/A MISG        N/A
REYNOSA        CLOUDY    68  54  60 NW3       29.99F
SALTILLO       SUNNY     68  57  68 N12       30.11F
TORREON        MOSUNNY   90  39  17 N10       29.91F
VICTORIA       CLOUDY    70  55  60 NW6       29.99S

WESTERN MEXICO

CITY           SKY/WX    TMP DP  RH WIND       PRES   REMARKS
AGUASCALIENTES MOSUNNY   91  18   6 SW21      30.06F
COLIMA         MOSUNNY   79  64  61 SW17      29.91F
DURANGO        SUNNY     90  14   6 NW12      30.01F
GUADALAJARA    SUNNY     93  27   9 W23       29.99F
MANZANILLO     SUNNY     79  72  78 CALM      29.80S
MAZATLAN       MOSUNNY   84  66  54 W13       29.80F
PTO. VALLARTA  SUNNY     81  70  69 SW13      29.81F
TEPIC          SUNNY     84  70  61 N9        29.99R
URUAPAN        SUNNY     82  59  44 S8        30.08F
ZACATECAS      MOSUNNY   88  28  11 W29       30.11F

CENTRAL MEXICO

CITY           SKY/WX    TMP DP  RH WIND       PRES   REMARKS
CUERNAVACA     PTSUNNY   93  45  18 SW3       29.94F HAZE
LEON           MOSUNNY   93  34  12 S9        30.09F
MEXICO CITY    PTSUNNY   73  55  53 S10       30.19  THUNDER
MORELIA        SUNNY     88  37  16 S17       30.07S
POZA RICA      CLOUDY    72  68  88 CALM      29.95S
PUEBLA         MOSUNNY   79  43  27 S17       30.20F
QUERETARO      MOSUNNY   90  34  13 W16       30.10F
S. LUIS POTOSI MOSUNNY   77  52  41 NE14      30.06F
TAMPICO        PTSUNNY   75  61  60 N12       29.93F
TOLUCA         MOSUNNY   75  50  41 S16       30.30S HAZE
VERACRUZ       MOSUNNY   81  70  69 N9        29.87F

SOUTHERN MEXICO

CITY           SKY/WX    TMP DP  RH WIND       PRES   REMARKS
ACAPULCO       SUNNY     82  75  78 W8        29.79S
B. DE HUATULCO CLOUDY    84  77  79 S8        29.87R
MINATITLAN     PTSUNNY   81  68  65 N21       29.77S
OAXACA         PTSUNNY   81  61  50 E5        30.06S
PTO. ESCONDIDO SUNNY     82  75  78 W8        29.90S
TAPACHULA      MOSUNNY   88  77  70 CALM      29.75F HX 100
TUX. GUTIERREZ PTSUNNY   90  68  48 NW16      29.81S
VILLAHERMOSA   PTSUNNY   86  79  79 N12       29.84R SMOKE   HX  99
ZIHUATANEJO    MOSUNNY   84  72  65 SW9       29.81F

YUCATAN PENINSULA

CITY           SKY/WX    TMP DP  RH WIND       PRES   REMARKS
CAMPECHE       MOSUNNY   88  77  70 W12G23    29.77R HX 100
CANCUN         MOSUNNY   86  79  79 SE15      29.86S HX  99
CHETUMAL       MOSUNNY   86  73  66 E12       29.82S
C. DEL CARMEN  PTSUNNY   88  79  74 W9        29.80S HX 102
COZUMEL        MOSUNNY   82  75  78 SE12      29.87S
MERIDA         PTSUNNY   88  75  66 N10G22    29.82R HX  97

$$





USA.gov is the U.S. government's official web portal to all federal, state and local government web resources and services.